When you browse on this site, cookies collect data to enhance your experience and personalize the content and advertising you see.
Visit our Privacy Policy to learn more. By continuing to use the site, you agree to this use of cookies and data.
  • In Österreich
  • Länderverzeichnis
  • Für 7 Tage
  • Wassertemperatur
  • Wetterkarte
  • News
  • Widgets
  • user-avatar
    Anmelden

    Stündliche Wetter Garoua

    Heute, 7 Juni, Sonntag

    Zeit Temperatur Niederschläge Wind Luftdruck Luftfeuchtigkeit
    00:00 +29°C° 0 mm 1 m/S 742 mmHg 66%
    01:00 +28°C° 0 mm 1 m/S 742 mmHg 67%
    02:00 +28°C° 0 mm 1 m/S 742 mmHg 69%
    03:00 +28°C° 0 mm 1 m/S 741 mmHg 70%
    04:00 +27°C° 0 mm 1 m/S 741 mmHg 72%
    05:00 +28°C° 0 mm 1 m/S 742 mmHg 72%
    06:00 +28°C° 0 mm 2 m/S 742 mmHg 71%
    07:00 +28°C° 0 mm 2 m/S 742 mmHg 71%
    08:00 +30°C° 0 mm 2 m/S 742 mmHg 64%
    09:00 +33°C° 0 mm 3 m/S 742 mmHg 58%
    10:00 +35°C° 0 mm 3 m/S 742 mmHg 51%
    11:00 +37°C° 0 mm 3 m/S 742 mmHg 47%
    12:00 +38°C° 0 mm 3 m/S 741 mmHg 43%
    13:00 +39°C° 0 mm 3 m/S 741 mmHg 39%
    14:00 +40°C° 0 mm 3 m/S 740 mmHg 38%
    15:00 +40°C° 0 mm 2 m/S 739 mmHg 38%
    16:00 +40°C° 0 mm 2 m/S 739 mmHg 37%
    17:00 +37°C° 0 mm 3 m/S 739 mmHg 44%
    18:00 +34°C° 0 mm 4 m/S 739 mmHg 51%
    19:00 +30°C° 0 mm 5 m/S 740 mmHg 58%
    20:00 +30°C° 0.3 mm 4 m/S 740 mmHg 63%
    21:00 +29°C° 0.3 mm 3 m/S 741 mmHg 68%
    22:00 +28°C° 0.3 mm 2 m/S 741 mmHg 73%
    23:00 +28°C° 0 mm 2 m/S 741 mmHg 72%

    Morgen, 8 Juni, Montag

    Zeit Temperatur Niederschläge Wind Luftdruck Luftfeuchtigkeit
    00:00 +27°C° 0 mm 1 m/S 741 mmHg 72%
    01:00 +27°C° 0 mm 1 m/S 741 mmHg 72%
    02:00 +27°C° 0 mm 1 m/S 740 mmHg 73%
    03:00 +27°C° 0 mm 1 m/S 740 mmHg 73%
    04:00 +26°C° 0 mm 1 m/S 740 mmHg 74%
    05:00 +27°C° 0 mm 1 m/S 740 mmHg 74%
    06:00 +27°C° 0 mm 2 m/S 741 mmHg 74%
    07:00 +28°C° 0 mm 2 m/S 741 mmHg 75%
    08:00 +30°C° 0 mm 3 m/S 741 mmHg 68%
    09:00 +33°C° 0 mm 4 m/S 741 mmHg 62%
    10:00 +35°C° 0 mm 4 m/S 741 mmHg 56%
    11:00 +36°C° 0 mm 4 m/S 741 mmHg 52%
    12:00 +38°C° 0 mm 4 m/S 741 mmHg 47%
    13:00 +40°C° 0 mm 4 m/S 740 mmHg 43%
    14:00 +39°C° 0 mm 3 m/S 739 mmHg 42%
    15:00 +39°C° 0 mm 3 m/S 739 mmHg 42%
    16:00 +39°C° 0 mm 2 m/S 738 mmHg 41%
    17:00 +37°C° 0 mm 2 m/S 738 mmHg 45%
    18:00 +36°C° 0 mm 2 m/S 739 mmHg 49%
    19:00 +34°C° 0 mm 2 m/S 739 mmHg 53%
    20:00 +32°C° 0.1 mm 2 m/S 739 mmHg 58%
    21:00 +31°C° 0.1 mm 2 m/S 739 mmHg 63%
    22:00 +30°C° 0.1 mm 2 m/S 740 mmHg 67%
    23:00 +30°C° 0 mm 2 m/S 740 mmHg 70%

    übermorgen, 9 Juni, Dienstag

    Zeit Temperatur Niederschläge Wind Luftdruck Luftfeuchtigkeit
    00:00 +30°C° 0 mm 1 m/S 739 mmHg 73%
    01:00 +29°C° 0 mm 1 m/S 739 mmHg 75%
    02:00 +29°C° 0 mm 1 m/S 739 mmHg 75%
    03:00 +29°C° 0 mm 1 m/S 739 mmHg 76%
    04:00 +29°C° 0 mm 1 m/S 740 mmHg 76%
    05:00 +29°C° 0 mm 2 m/S 740 mmHg 75%
    06:00 +29°C° 0 mm 3 m/S 741 mmHg 75%
    07:00 +29°C° 0 mm 3 m/S 741 mmHg 74%
    08:00 +32°C° 0 mm 4 m/S 741 mmHg 68%
    09:00 +33°C° 0 mm 4 m/S 741 mmHg 62%
    10:00 +35°C° 0 mm 5 m/S 742 mmHg 56%
    11:00 +36°C° 0 mm 5 m/S 741 mmHg 52%
    12:00 +37°C° 0 mm 4 m/S 741 mmHg 48%
    13:00 +38°C° 0 mm 4 m/S 740 mmHg 44%
    14:00 +38°C° 0 mm 4 m/S 740 mmHg 43%
    15:00 +38°C° 0 mm 4 m/S 739 mmHg 42%
    16:00 +38°C° 0 mm 3 m/S 739 mmHg 42%
    17:00 +37°C° 0.1 mm 3 m/S 739 mmHg 47%
    18:00 +35°C° 0.1 mm 2 m/S 740 mmHg 52%
    19:00 +34°C° 0.1 mm 2 m/S 740 mmHg 57%
    20:00 +31°C° 0.8 mm 2 m/S 741 mmHg 63%
    21:00 +30°C° 0.8 mm 1 m/S 741 mmHg 70%
    22:00 +29°C° 0.8 mm 1 m/S 742 mmHg 76%
    23:00 +27°C° 3.6 mm 3 m/S 742 mmHg 81%

    10 Juni, Mittwoch

    Zeit Temperatur Niederschläge Wind Luftdruck Luftfeuchtigkeit
    00:00 +26°C° 3.6 mm 4 m/S 742 mmHg 85%
    01:00 +23°C° 3.6 mm 5 m/S 742 mmHg 90%
    02:00 +25°C° 2.3 mm 5 m/S 742 mmHg 88%
    03:00 +25°C° 2.3 mm 5 m/S 742 mmHg 87%
    04:00 +25°C° 2.3 mm 5 m/S 742 mmHg 86%
    05:00 +26°C° 0 mm 4 m/S 742 mmHg 85%
    06:00 +26°C° 0 mm 3 m/S 742 mmHg 85%
    07:00 +26°C° 0 mm 2 m/S 742 mmHg 85%
    08:00 +27°C° 0 mm 2 m/S 742 mmHg 79%
    09:00 +28°C° 0 mm 2 m/S 742 mmHg 73%
    10:00 +30°C° 0 mm 2 m/S 743 mmHg 68%
    11:00 +31°C° 0 mm 2 m/S 742 mmHg 62%
    12:00 +33°C° 0 mm 3 m/S 742 mmHg 56%
    13:00 +35°C° 0 mm 3 m/S 742 mmHg 50%
    14:00 +35°C° 0 mm 2 m/S 741 mmHg 48%
    15:00 +35°C° 0 mm 2 m/S 741 mmHg 47%
    16:00 +36°C° 0 mm 2 m/S 741 mmHg 45%
    17:00 +34°C° 0 mm 2 m/S 741 mmHg 50%
    18:00 +32°C° 0 mm 2 m/S 741 mmHg 55%
    19:00 +30°C° 0 mm 1 m/S 741 mmHg 60%
    20:00 +30°C° 0 mm 1 m/S 741 mmHg 63%
    21:00 +29°C° 0 mm 1 m/S 741 mmHg 67%
    22:00 +28°C° 0 mm 1 m/S 742 mmHg 70%
    23:00 +28°C° 0 mm 1 m/S 742 mmHg 72%

    11 Juni, Donnerstag

    Zeit Temperatur Niederschläge Wind Luftdruck Luftfeuchtigkeit
    00:00 +28°C° 0 mm 1 m/S 742 mmHg 74%
    01:00 +27°C° 0 mm 1 m/S 741 mmHg 76%
    02:00 +27°C° 0.1 mm 1 m/S 741 mmHg 78%
    03:00 +27°C° 0.1 mm 1 m/S 741 mmHg 81%
    04:00 +26°C° 0.1 mm 1 m/S 741 mmHg 83%
    05:00 +27°C° 0 mm 2 m/S 742 mmHg 82%
    06:00 +27°C° 0 mm 2 m/S 742 mmHg 81%
    07:00 +27°C° 0 mm 2 m/S 743 mmHg 80%
    08:00 +29°C° 0 mm 2 m/S 743 mmHg 72%
    09:00 +32°C° 0 mm 1 m/S 744 mmHg 64%
    10:00 +32°C° 0 mm 0 m/S 744 mmHg 55%
    11:00 +35°C° 0.2 mm 1 m/S 743 mmHg 52%
    12:00 +36°C° 0.2 mm 2 m/S 743 mmHg 49%
    13:00 +37°C° 0.2 mm 2 m/S 742 mmHg 46%
    14:00 +37°C° 0 mm 3 m/S 741 mmHg 47%
    15:00 +37°C° 0 mm 3 m/S 741 mmHg 47%
    16:00 +36°C° 0 mm 3 m/S 740 mmHg 48%
    17:00 +35°C° 0.1 mm 2 m/S 740 mmHg 54%
    18:00 +32°C° 0.1 mm 2 m/S 740 mmHg 59%
    19:00 +31°C° 0.1 mm 1 m/S 740 mmHg 65%
    20:00 +30°C° 0 mm 1 m/S 740 mmHg 67%
    21:00 +30°C° 0 mm 1 m/S 741 mmHg 69%
    22:00 +29°C° 0 mm 1 m/S 741 mmHg 71%
    23:00 +29°C° 0 mm 1 m/S 741 mmHg 72%

    12 Juni, Freitag

    Zeit Temperatur Niederschläge Wind Luftdruck Luftfeuchtigkeit
    00:00 +26°C° 0 mm 0 m/S 741 mmHg 74%
    01:00 +26°C° 0 mm 0 m/S 741 mmHg 76%
    02:00 +26°C° 0 mm 0 m/S 741 mmHg 77%
    03:00 +26°C° 0 mm 0 m/S 741 mmHg 78%
    04:00 +25°C° 0 mm 0 m/S 741 mmHg 80%
    05:00 +26°C° 0 mm 0 m/S 741 mmHg 78%
    06:00 +26°C° 0 mm 0 m/S 742 mmHg 77%
    07:00 +27°C° 0 mm 0 m/S 742 mmHg 76%
    08:00 +31°C° 0 mm 1 m/S 742 mmHg 68%
    09:00 +33°C° 0 mm 1 m/S 742 mmHg 60%
    10:00 +36°C° 0 mm 2 m/S 743 mmHg 52%
    11:00 +36°C° 0 mm 1 m/S 742 mmHg 47%
    12:00 +39°C° 0 mm 1 m/S 741 mmHg 42%
    13:00 +40°C° 0 mm 1 m/S 741 mmHg 37%
    14:00 +40°C° 0 mm 1 m/S 740 mmHg 37%
    15:00 +39°C° 0 mm 1 m/S 740 mmHg 37%
    16:00 +39°C° 0 mm 1 m/S 739 mmHg 37%
    17:00 +36°C° 0 mm 1 m/S 739 mmHg 42%
    18:00 +35°C° 0 mm 1 m/S 739 mmHg 46%
    19:00 +33°C° 0 mm 1 m/S 740 mmHg 50%
    20:00 +32°C° 0.1 mm 1 m/S 740 mmHg 54%
    21:00 +31°C° 0.1 mm 1 m/S 741 mmHg 58%
    22:00 +31°C° 0.1 mm 1 m/S 741 mmHg 62%
    23:00 +30°C° 0.3 mm 1 m/S 741 mmHg 68%
    Mehr zeigen